PD0HRY-12 Weather Reports


time (UTC)temp
F
wind
direction
speed
knots
gust
knots
rain 1hr
in
rain 24hr
in
rain mn
in
humidity
%
barometer
mb
20260502213001 63 55 0.0 0.0 0.00 0.00 0.00 76 1006.0
20260502210004 64 68 0.0 0.0 0.00 0.00 0.00 75 1006.0
20260502203002 65 95 0.0 0.0 0.00 0.00 0.00 71 1007.0
20260502200001 69 71 0.0 0.0 0.00 0.00 0.00 62 1007.0
20260502193004 70 55 0.0 0.0 0.00 0.00 0.00 60 1007.0
20260502190002 71 350 0.0 0.0 0.00 0.00 0.00 59 1006.0
20260502183001 72 17 0.0 0.0 0.00 0.00 0.00 56 1006.0
20260502163004 76 255 0.0 0.0 0.00 0.00 0.00 49 1007.0
20260502123000 73 234 0.0 0.0 0.00 0.00 0.00 52 1010.0
20260502113002 72 264 0.0 0.0 0.00 0.00 0.00 52 1010.0
20260502110000 72 237 0.0 0.0 0.00 0.00 0.00 52 1010.0
20260502103003 72 262 0.0 0.0 0.00 0.00 0.00 52 1011.0
20260502070002 61 241 0.0 0.0 0.00 0.00 0.00 50 1011.0
20260502063000 62 106 0.0 0.0 0.00 0.00 0.00 50 1011.0
20260502060004 58 128 0.0 0.0 0.00 0.00 0.00 54 1011.0
20260502053002 57 80 0.0 0.0 0.00 0.00 0.00 56 1011.0
20260502050000 55 88 0.0 0.0 0.00 0.00 0.00 59 1011.0
20260502043004 51 97 0.0 0.0 0.00 0.00 0.00 68 1011.0
20260502040002 50 98 0.0 0.0 0.00 0.00 0.00 69 1011.0
20260502033000 50 98 0.0 0.0 0.00 0.00 0.00 70 1012.0
20260502030004 51 98 0.0 0.0 0.00 0.00 0.00 68 1012.0
20260502023002 51 97 0.0 0.0 0.00 0.00 0.00 68 1012.0
20260502020000 53 97 0.0 0.0 0.00 0.00 0.00 68 1012.0
20260502013004 53 98 0.0 0.0 0.00 0.00 0.00 69 1012.0
20260502010002 53 99 0.0 0.0 0.00 0.00 0.00 68 1012.0
20260502003000 55 100 0.0 0.0 0.00 0.00 0.00 62 1013.0
20260502000004 55 99 0.0 0.0 0.00 0.00 0.00 60 1013.0
20260501233002 57 100 0.0 0.0 0.00 0.00 0.00 55 1013.0
20260501230000 59 100 0.0 0.0 0.00 0.00 0.00 47 1013.0
20260501223004 60 101 0.0 0.0 0.00 0.00 0.00 45 1013.0
20260501220002 61 107 0.0 0.0 0.00 0.00 0.00 46 1013.0